STARLINK-34773, 65024

Orbit data source: Space-Track

STARLINK-34773, 65024 is a payload satellite owned by SpaceX/Seattle (US) in LEO that was launched on Wed, 30 Jul 2025 UTC via an FALCON 9 launch vehicle from the Air Force Eastern Test Range (AFETR). Payload-class satellites include a variety of spacecraft equipped with specific instruments for various scientific and technological missions. These include communications satellites like Starlink; space stations such as the ISS; scientific satellites like the Hubble; Earth observation satellites from companies like Planet Labs, Umbra, and HawkEye 360; GPS; miniature CubeSats for education and research; and military/defense satellites.

Loading next visibility...
Identifier
65024, 2025-161K
Orbit
LEO
Country
Flag of USUS
Related business
Manufacturer
SpaceX/Seattle
Mission
Operational spacecraft
Bus & Motor
STARLINK V2MO, Unknown motor
Mass
575 kg wet, ~530 kg dry
Launch date (UTC)
2025-07-30 (1 month ago)
Launch vehicle
FALCON 9
Launch site
Air Force Eastern Test Range (AFETR)
Object type
Payload
Rocket body
Debris
Shape & HBR
Unknown
Radar Cross Section
Large (>1 m²)

Expand to show TLE details & history
Last TLE update: 1 day ago

TLE from 1 day ago
0 STARLINK-34773
1 65024U 25161K   25241.05506014  .00046304  00000-0  83478-3 0  9997
2 65024  53.1604 111.3141 0001293  92.7563 267.3594 15.49339158  5792
Epoch: 2025-08-29T01:19Z
TLE epoch observation values (Epoch: 2025-08-29T01:19:17.196Z)
Latitude
-0.00001°
Longitude
113.98324°
Altitude
419.606 km
Speed
7.661 km/s
True Right ascension
07h 25m 15s
True Declination
0° 00' 00"
Sunlit
Object was in daylight at epoch
Visualization orbit readout
Latitude
Unknown
Longitude
Unknown
Altitude
Unknown
Speed
Unknown
Apparent Right ascension
Unknown
Apparent Declination
Unknown
Sunlit
N/A
Visualization observer readout
Local Sidereal Time
16:54:58
Azimuth
Unknown
Elevation
Unknown
Doppler factor
Unknown
Orbital elements
Apogee altitude
419.795 km
Perigee altitude
418.038 km
Semi-major axis
6,797.054 km
Eccentricity
0.00013
Inclination
53.1604°
RAAN
111.3141°
Arg. of periapsis
92.7563°
True anomaly
267.3446°
Mean anomaly
267.3594°
Eccentric anomaly
267.352°
Mean motion
3.87313 °/min
Orbital period
92.95 mins
BSTAR
0.00083478
Loading maneuver chart data...
Computing Atmospheric mass density...
Loading historical data...
Loading historical data...
Loading historical data...
Loading historical data...
Loading historical data...
Loading historical data...
Loading historical data...

Documentation

Showing up to 5 results
|